Location: Artiguedieu
(43.5000°N, 0.5454°E)
Time: 09:50:34
(UTC+00:00)

Explorer 7 - Pass Details

Date: 06 August 2021
Orbit: 484 x 676 km, 50.3° (Epoch: 22 September)

Event Time Altitude Azimuth Distance (km) Brightness Sun altitude
Rises 02:13:54 0° 209° (SSW) 2,536 - -22.9°
Reaches altitude 10° 02:16:16 10° 197° (SSW) 1,655 - -22.6°
Maximum altitude 02:19:28 27° 138° (SE) 950 - -22.3°
Exits shadow 02:20:03 26° 121° (ESE) 985 8.1 -22.2°
Drops below altitude 10° 02:22:42 10° 79° (E) 1,680 9.9 -21.9°
Sets 02:25:07 0° 67° (ENE) 2,583 11.2 -21.7°
